Hourly Weather Uige

Today, 15 August, Saturday

Time Temperature Precipitation Wind Pressure Humidity
00:00 +19°C° 0 mm 1 mps 690 mmHg 90%
01:00 +19°C° 0 mm 1 mps 690 mmHg 95%
02:00 +19°C° 0 mm 1 mps 690 mmHg 92%
03:00 +20°C° 0 mm 1 mps 690 mmHg 90%
04:00 +20°C° 0 mm 1 mps 690 mmHg 87%
05:00 +20°C° 0 mm 1 mps 691 mmHg 86%
06:00 +20°C° 0 mm 1 mps 691 mmHg 84%
07:00 +20°C° 0 mm 1 mps 691 mmHg 83%
08:00 +23°C° 0 mm 1 mps 692 mmHg 71%
09:00 +26°C° 0 mm 1 mps 692 mmHg 59%
10:00 +29°C° 0 mm 1 mps 693 mmHg 47%
11:00 +31°C° 0 mm 1 mps 692 mmHg 40%
12:00 +34°C° 0 mm 2 mps 692 mmHg 33%
13:00 +36°C° 0 mm 2 mps 691 mmHg 26%
14:00 +36°C° 0 mm 2 mps 690 mmHg 26%
15:00 +36°C° 0 mm 2 mps 689 mmHg 26%
16:00 +35°C° 0 mm 3 mps 689 mmHg 26%
17:00 +32°C° 0 mm 2 mps 689 mmHg 32%
18:00 +29°C° 0 mm 2 mps 689 mmHg 37%
19:00 +27°C° 0 mm 2 mps 689 mmHg 43%
20:00 +25°C° 0 mm 2 mps 689 mmHg 52%
21:00 +23°C° 0 mm 1 mps 690 mmHg 61%
22:00 +22°C° 0 mm 1 mps 690 mmHg 70%
23:00 +20°C° 0 mm 1 mps 690 mmHg 77%

Tomorrow, 16 August, Sunday

Time Temperature Precipitation Wind Pressure Humidity
00:00 +19°C° 0 mm 1 mps 690 mmHg 84%
01:00 +18°C° 0 mm 1 mps 690 mmHg 91%
02:00 +18°C° 0 mm 1 mps 689 mmHg 93%
03:00 +16°C° 0 mm 1 mps 689 mmHg 96%
04:00 +15°C° 0 mm 0 mps 689 mmHg 98%
05:00 +15°C° 0 mm 0 mps 689 mmHg 94%
06:00 +16°C° 0 mm 0 mps 690 mmHg 91%
07:00 +17°C° 0 mm 0 mps 691 mmHg 88%
08:00 +22°C° 0 mm 1 mps 691 mmHg 72%
09:00 +26°C° 0 mm 1 mps 692 mmHg 57%
10:00 +29°C° 0 mm 1 mps 692 mmHg 41%
11:00 +31°C° 0 mm 2 mps 692 mmHg 35%
12:00 +34°C° 0 mm 2 mps 691 mmHg 29%
13:00 +37°C° 0 mm 2 mps 691 mmHg 22%
14:00 +36°C° 0 mm 2 mps 690 mmHg 22%
15:00 +36°C° 0 mm 3 mps 689 mmHg 22%
16:00 +36°C° 0 mm 3 mps 689 mmHg 22%
17:00 +33°C° 0 mm 3 mps 689 mmHg 28%
18:00 +29°C° 0 mm 2 mps 689 mmHg 34%
19:00 +26°C° 0 mm 2 mps 689 mmHg 40%
20:00 +24°C° 0 mm 1 mps 689 mmHg 47%
21:00 +23°C° 0 mm 1 mps 690 mmHg 55%
22:00 +21°C° 0 mm 1 mps 690 mmHg 62%
23:00 +20°C° 0 mm 1 mps 690 mmHg 70%

Day after tomorrow, 17 August, Monday

Time Temperature Precipitation Wind Pressure Humidity
00:00 +18°C° 0 mm 1 mps 689 mmHg 77%
01:00 +16°C° 0 mm 1 mps 689 mmHg 85%
02:00 +16°C° 0 mm 1 mps 689 mmHg 89%
03:00 +15°C° 0 mm 1 mps 689 mmHg 93%
04:00 +15°C° 0 mm 1 mps 688 mmHg 97%
05:00 +16°C° 0 mm 1 mps 689 mmHg 93%
06:00 +16°C° 0 mm 1 mps 689 mmHg 90%
07:00 +18°C° 0 mm 1 mps 690 mmHg 87%
08:00 +22°C° 0 mm 1 mps 691 mmHg 70%
09:00 +26°C° 0 mm 1 mps 692 mmHg 52%
10:00 +30°C° 0 mm 1 mps 692 mmHg 35%
11:00 +32°C° 0 mm 2 mps 692 mmHg 30%
12:00 +34°C° 0 mm 2 mps 691 mmHg 26%
13:00 +36°C° 0 mm 2 mps 691 mmHg 21%
14:00 +36°C° 0 mm 3 mps 690 mmHg 21%
15:00 +36°C° 0 mm 3 mps 690 mmHg 21%
16:00 +35°C° 0 mm 3 mps 689 mmHg 22%
17:00 +31°C° 0 mm 3 mps 689 mmHg 30%
18:00 +28°C° 0 mm 3 mps 689 mmHg 37%
19:00 +25°C° 0 mm 3 mps 690 mmHg 45%
20:00 +23°C° 0 mm 2 mps 690 mmHg 59%
21:00 +20°C° 0 mm 2 mps 690 mmHg 72%
22:00 +18°C° 0 mm 1 mps 690 mmHg 85%
23:00 +18°C° 0 mm 1 mps 690 mmHg 89%

18 August, Tuesday

Time Temperature Precipitation Wind Pressure Humidity
00:00 +16°C° 0 mm 1 mps 690 mmHg 93%
01:00 +15°C° 0 mm 1 mps 690 mmHg 98%
02:00 +15°C° 0 mm 1 mps 690 mmHg 95%
03:00 +16°C° 0 mm 1 mps 689 mmHg 92%
04:00 +16°C° 0 mm 1 mps 689 mmHg 90%
05:00 +16°C° 0 mm 1 mps 690 mmHg 87%
06:00 +16°C° 0 mm 1 mps 690 mmHg 85%
07:00 +16°C° 0 mm 1 mps 690 mmHg 82%
08:00 +20°C° 0 mm 1 mps 691 mmHg 69%
09:00 +23°C° 0 mm 1 mps 691 mmHg 56%
10:00 +26°C° 0 mm 2 mps 692 mmHg 42%
11:00 +29°C° 0 mm 2 mps 691 mmHg 36%
12:00 +31°C° 0 mm 2 mps 691 mmHg 30%
13:00 +34°C° 0 mm 2 mps 690 mmHg 24%
14:00 +34°C° 0 mm 2 mps 689 mmHg 24%
15:00 +34°C° 0 mm 2 mps 689 mmHg 24%
16:00 +34°C° 0 mm 3 mps 688 mmHg 24%
17:00 +30°C° 0 mm 2 mps 688 mmHg 29%
18:00 +28°C° 0 mm 2 mps 688 mmHg 35%
19:00 +25°C° 0 mm 2 mps 688 mmHg 41%
20:00 +23°C° 0 mm 2 mps 689 mmHg 50%
21:00 +21°C° 0 mm 1 mps 689 mmHg 59%
22:00 +19°C° 0 mm 1 mps 689 mmHg 69%
23:00 +18°C° 0 mm 1 mps 689 mmHg 78%

19 August, Wednesday

Time Temperature Precipitation Wind Pressure Humidity
00:00 +15°C° 0 mm 1 mps 689 mmHg 87%
01:00 +14°C° 0 mm 1 mps 689 mmHg 95%
02:00 +15°C° 0 mm 1 mps 689 mmHg 94%
03:00 +15°C° 0 mm 1 mps 689 mmHg 93%
04:00 +14°C° 0 mm 0 mps 689 mmHg 92%
05:00 +15°C° 0 mm 0 mps 689 mmHg 89%
06:00 +15°C° 0 mm 0 mps 689 mmHg 87%
07:00 +16°C° 0 mm 0 mps 690 mmHg 84%
08:00 +21°C° 0 mm 1 mps 690 mmHg 67%
09:00 +25°C° 0 mm 1 mps 691 mmHg 51%
10:00 +29°C° 0 mm 1 mps 692 mmHg 35%
11:00 +31°C° 0 mm 2 mps 691 mmHg 31%
12:00 +34°C° 0 mm 2 mps 690 mmHg 27%
13:00 +35°C° 0 mm 3 mps 689 mmHg 23%
14:00 +35°C° 0 mm 3 mps 689 mmHg 23%
15:00 +35°C° 0 mm 3 mps 688 mmHg 23%
16:00 +35°C° 0 mm 3 mps 688 mmHg 23%
17:00 +31°C° 0 mm 2 mps 688 mmHg 28%
18:00 +28°C° 0 mm 2 mps 688 mmHg 33%
19:00 +26°C° 0 mm 2 mps 688 mmHg 38%
20:00 +24°C° 0 mm 1 mps 689 mmHg 46%
21:00 +22°C° 0 mm 1 mps 689 mmHg 54%
22:00 +19°C° 0 mm 1 mps 689 mmHg 62%
23:00 +18°C° 0 mm 1 mps 689 mmHg 68%

20 August, Thursday

Time Temperature Precipitation Wind Pressure Humidity
00:00 +16°C° 0 mm 0 mps 689 mmHg 75%
01:00 +15°C° 0 mm 0 mps 689 mmHg 81%
02:00 +14°C° 0 mm 0 mps 688 mmHg 85%
03:00 +14°C° 0 mm 0 mps 688 mmHg 88%
04:00 +13°C° 0 mm 0 mps 688 mmHg 92%
05:00 +14°C° 0 mm 0 mps 688 mmHg 90%
06:00 +14°C° 0 mm 0 mps 689 mmHg 89%
07:00 +15°C° 0 mm 1 mps 689 mmHg 88%
08:00 +20°C° 0 mm 1 mps 690 mmHg 72%
09:00 +24°C° 0 mm 1 mps 691 mmHg 56%
10:00 +28°C° 0 mm 1 mps 692 mmHg 40%
11:00 +30°C° 0 mm 2 mps 691 mmHg 35%
12:00 +32°C° 0 mm 2 mps 691 mmHg 31%
13:00 +35°C° 0 mm 2 mps 690 mmHg 26%
14:00 +35°C° 0 mm 2 mps 690 mmHg 26%
15:00 +34°C° 0 mm 3 mps 689 mmHg 27%
16:00 +34°C° 0 mm 3 mps 688 mmHg 28%
17:00 +30°C° 0 mm 3 mps 689 mmHg 33%
18:00 +28°C° 0 mm 2 mps 689 mmHg 37%
19:00 +26°C° 0 mm 2 mps 689 mmHg 42%
20:00 +24°C° 0 mm 2 mps 689 mmHg 50%
21:00 +22°C° 0 mm 1 mps 690 mmHg 59%
22:00 +20°C° 0 mm 1 mps 690 mmHg 67%
23:00 +19°C° 0 mm 1 mps 690 mmHg 74%
Show more